User: anonymous   Login
Location: Wildcat Hills Observatory
(41.6350°N, 103.6812°W)
Time: 06:06:44
(UTC-07:00)
Language:

Cosmos 1634 Rocket - Orbit

View from above orbital plane
View from above orbital plane
View from above satellite
View from above satellite

Ground track
Ground track

The orbit data is extracted from the following two-line orbital elements,

1 15598U 85022B   15031.15204119 -.00000028  00000-0 -43986-4 0  8195
2 15598 082.9366 032.2810 0022214 020.6504 032.6195 13.76504004501044
Epoch (UTC): 31 January 2015 03:38:56
Eccentricity: 0.0022214
inclination: 82.9366°
perigee height: 960 km
apogee height: 992 km
right ascension of ascending node: 32.2810°
argument of perigee: 20.6504°
revolutions per day: 13.76504004
mean anomaly at epoch: 32.6195°
orbit number at epoch: 50104

The dashed part of the orbit path shows where the satellite is in the earth's shadow,  

DLR